#timestamp,LO_Frequency,Hit,StdDev 
1514098815.9,286046999.6,N
1514098835.7,286046996.9,N
1514098855.6,286046997.0,N
1514098875.4,286046999.0,N
1514098895.2,286046998.5,N
1514098915.1,286046998.8,N
1514098916.0,286046998.8,N
1514098935.8,286047000.9,N
1514098955.7,286047000.4,N
1514098975.5,286047000.6,N
1514098995.3,286046998.4,N
1514099015.2,286046998.7,N
1514099035.9,286046998.2,N
1514099055.7,286046998.5,N
1514099075.6,286046998.7,N
1514099095.4,286046996.5,N
1514099145.3,286046999.0,E
1514099155.2,286046998.2,N
1514099175.0,286047001.1,P
1514099175.9,286047001.1,N
1514099195.8,286046998.6,N
1514099215.6,286046999.0,N
1514099235.5,286047000.5,N
1514099255.3,286047000.9,N
1514099275.1,286047000.0,N
1514099295.9,286047002.4,N
1514099315.7,286047000.3,N
1514099335.5,286047000.3,N
1514099355.4,286046998.3,N
1514099375.2,286047000.7,N
1514099395.1,286046998.9,N
1514099396.0,286046998.9,N
1514099415.8,286046998.8,N
1514099435.6,286047000.5,N
1514099455.5,286047000.9,N
1514099475.3,286047000.3,N
1514099495.1,286047000.4,N
1514099515.9,286047000.9,N
1514099535.7,286047001.0,N
1514099555.6,286047000.3,N
1514099575.4,286046999.7,N
1514099595.2,286047002.3,N
1514099615.1,286046999.9,N
1514099616.0,286046999.9,N
1514099635.8,286047002.3,N
1514099655.7,286047000.2,N
1514099675.5,286047000.8,N
1514099695.3,286047000.3,N
1514099715.2,286047000.7,N
1514099735.9,286047000.3,N
1514099755.7,286046999.9,N
1514099775.6,286047001.9,N
1514099795.4,286047002.5,N
1514099815.3,286047004.0,Y
1514099835.1,286047003.6,P
1514099836.0,286047003.6,N
1514099855.8,286047001.9,N
1514099875.7,286047001.9,N
1514099895.5,286047002.4,N
1514099915.3,286047002.1,N
1514099935.2,286047001.6,N
1514099955.0,286047001.3,N
1514099955.9,286047001.3,N
1514099975.8,286047003.6,Y
1514099995.6,286047001.9,P
1514100015.4,286047000.2,N
1514100035.3,286047000.5,N
1514100055.1,286047000.4,N
1514100075.9,286047001.8,N
1514100095.7,286047001.4,N
1514100115.5,286047003.8,Y
1514100135.4,286047004.1,P
1514100155.2,286047001.6,N
1514100175.0,286047002.5,N
1514100176.0,286047002.5,N
1514100195.8,286047000.5,N
1514100215.6,286046998.4,N
1514100235.5,286046997.1,N
1514100255.3,286046997.7,N
1514100275.2,286046997.8,N
1514100295.9,286046994.9,N
1514100315.7,286046995.9,N
1514100335.6,286046997.8,N
1514100355.4,286046995.5,N
1514100375.3,286046995.6,N
1514100395.1,286046997.3,N
1514100396.0,286046997.3,N
1514100415.8,286046998.5,N
1514100435.7,286046998.9,N
1514100455.5,286047000.7,N
1514100475.4,286047000.6,N
1514100495.2,286047000.0,N
1514100515.0,286047001.0,N
1514100515.9,286047001.0,N
1514100535.8,286047000.8,N
1514100555.6,286046998.7,N
1514100575.4,286046996.5,N
1514100595.3,286046997.2,N
1514100615.1,286046998.9,N
1514100635.9,286046998.9,N
1514100655.7,286046996.8,N
1514100675.5,286046997.0,N
1514100695.4,286046998.5,N
1514100715.2,286046998.2,N
1514100735.0,286046998.2,N
1514100735.9,286046998.2,N
1514100755.8,286046998.2,N
1514100775.6,286046999.7,N
1514100795.5,286047002.6,N
1514100815.3,286047000.9,N
1514100835.1,286047000.8,N
1514100855.9,286046999.7,N
1514100875.7,286046999.9,N
1514100895.5,286047001.0,N
1514100915.4,286046999.9,N
1514100935.2,286046999.8,N
1514100955.1,286047000.2,N
1514100956.0,286047000.2,N
1514100975.8,286046998.5,N
1514100995.6,286046998.4,N
1514101015.5,286046999.4,N
1514101035.3,286046999.1,N
1514101055.2,286046997.7,N
1514101075.9,286046997.6,N
1514101095.7,286046996.8,N
1514101115.6,286046996.5,N
1514101135.4,286046997.7,N
1514101155.2,286046997.3,N
1514101175.1,286046995.4,Y
1514101176.0,286046995.4,P
1514101195.8,286046997.1,N
1514101215.7,286046999.2,N
1514101235.5,286046998.9,N
1514101255.3,286046998.9,N
1514101275.2,286046999.4,N
1514101295.0,286046999.5,N
1514101295.9,286046999.5,N
1514101315.7,286046999.3,N
1514101335.6,286046999.4,N
1514101355.4,286046998.3,N
1514101375.3,286046998.9,N
1514101395.1,286047000.9,N
1514101415.8,286047000.5,N
1514101435.7,286047000.4,N
1514101455.5,286047000.5,N
1514101475.4,286047000.7,N
1514101495.2,286047000.7,N
1514101515.0,286047001.1,N
1514101516.0,286047001.1,N
1514101535.8,286046998.3,N
1514101555.6,286046999.0,N
1514101575.5,286046998.1,N
1514101595.3,286047000.0,N
1514101615.1,286047000.3,N
1514101635.9,286047001.0,N
1514101655.7,286046999.9,N
1514101675.6,286047002.2,N
1514101695.4,286047000.9,N
1514101715.2,286047001.0,N
1514101735.1,286046998.1,N
1514101736.0,286046998.1,N
1514101755.8,286046998.9,N
1514101775.7,286047001.1,N
1514101795.5,286047000.4,N
1514101815.3,286047001.9,N
1514101835.2,286047000.6,N
1514101855.0,286047000.4,N
1514101855.9,286047000.4,N
1514101875.8,286047001.0,N
1514101895.6,286046998.8,N
1514101915.4,286046998.2,N
1514101935.3,286046998.8,N
1514101955.1,286046998.6,N
1514101975.8,286046999.0,N
1514101995.7,286046998.3,N
1514102015.5,286046998.5,N
1514102035.4,286047000.8,N
1514102055.2,286047001.1,N
1514102075.0,286047001.1,N
1514102075.9,286047001.1,N
1514102095.8,286047000.6,N
1514102115.6,286046998.6,N
1514102135.4,286046998.7,N
1514102155.3,286047001.1,N
1514102175.1,286047001.1,N
1514102195.9,286046998.9,N
1514102215.7,286046999.2,N
1514102235.5,286046999.5,N
1514102255.4,286046997.1,N
1514102275.2,286046997.5,N
1514102295.1,286046996.5,N
1514102296.0,286046996.5,N
1514102315.8,286046999.0,N
1514102335.6,286046996.6,N
1514102355.5,286046997.2,N
1514102375.3,286046998.7,N
1514102395.2,286046996.5,N
